Time,TemperatureF,DewpointF,PressureIn,WindDirection,WindDirectionDegrees,WindSpeedMPH,WindSpeedGustMPH,Humidity,HourlyPrecipIn,Conditions,Clouds,dailyrainin,SolarRadiationWatts/m^2,SoftwareType,DateUTC
2013-01-26 00:06:00,43.5,33.3,29.64,North,355,5.0,5.0,67,0.00,,,0.00,0,Wunderground v.1.15,2013-01-25 23:06:00,
2013-01-26 00:16:00,43.3,33.4,29.64,NNE,28,4.0,7.0,68,0.00,,,0.00,0,Wunderground v.1.15,2013-01-25 23:16:00,
2013-01-26 00:21:00,43.3,33.4,29.64,ENE,75,5.0,7.0,68,0.00,,,0.00,0,Wunderground v.1.15,2013-01-25 23:21:00,
2013-01-26 00:31:00,43.1,33.3,29.64,North,360,4.0,4.0,68,0.00,,,0.00,0,Wunderground v.1.15,2013-01-25 23:31:00,
2013-01-26 00:36:00,42.9,33.4,29.64,NNE,15,2.0,4.0,69,0.00,,,0.00,0,Wunderground v.1.15,2013-01-25 23:36:00,
2013-01-26 00:46:00,42.7,33.6,29.64,NE,44,2.0,4.0,70,0.00,,,0.00,0,Wunderground v.1.15,2013-01-25 23:46:00,
2013-01-26 00:51:00,42.7,33.6,29.64,NNW,331,4.0,4.0,70,0.00,,,0.00,0,Wunderground v.1.15,2013-01-25 23:51:00,
2013-01-26 01:01:00,42.5,33.4,29.64,NNE,32,3.0,3.0,70,0.00,,,0.00,0,Wunderground v.1.15,2013-01-26 00:01:00,
2013-01-26 01:06:00,42.3,33.6,29.64,NNE,22,2.0,4.0,71,0.00,,,0.00,0,Wunderground v.1.15,2013-01-26 00:06:00,
2013-01-26 01:16:00,42.3,33.6,29.64,NE,48,4.0,5.0,71,0.00,,,0.00,0,Wunderground v.1.15,2013-01-26 00:16:00,
2013-01-26 01:26:00,42.1,33.4,29.64,NE,55,3.0,5.0,71,0.00,,,0.00,0,Wunderground v.1.15,2013-01-26 00:26:00,
2013-01-26 01:31:00,42.0,33.3,29.64,NE,49,3.0,4.0,71,0.00,,,0.00,0,Wunderground v.1.15,2013-01-26 00:31:00,
2013-01-26 01:36:00,42.0,33.6,29.65,North,360,3.0,4.0,72,0.00,,,0.00,0,Wunderground v.1.15,2013-01-26 00:36:00,
2013-01-26 01:46:00,41.9,33.5,29.65,NNE,30,2.0,7.0,72,0.00,,,0.00,0,Wunderground v.1.15,2013-01-26 00:46:00,
2013-01-26 01:56:00,41.8,33.4,29.65,NE,52,3.0,4.0,72,0.00,,,0.00,0,Wunderground v.1.15,2013-01-26 00:56:00,
2013-01-26 02:01:00,41.9,33.5,29.65,NE,44,4.0,7.0,72,0.00,,,0.00,0,Wunderground v.1.15,2013-01-26 01:01:00,
2013-01-26 02:11:00,41.9,33.5,29.64,North,355,5.0,5.0,72,0.00,,,0.00,0,Wunderground v.1.15,2013-01-26 01:11:00,
2013-01-26 02:16:00,41.9,33.5,29.64,NE,56,5.0,11.0,72,0.00,,,0.00,0,Wunderground v.1.15,2013-01-26 01:16:00,
2013-01-26 02:21:00,42.0,33.3,29.64,East,80,6.0,10.0,71,0.00,,,0.00,0,Wunderground v.1.15,2013-01-26 01:21:00,
2013-01-26 02:31:00,41.8,33.1,29.65,NW,319,5.0,5.0,71,0.00,,,0.00,0,Wunderground v.1.15,2013-01-26 01:31:00,
2013-01-26 02:36:00,41.6,33.2,29.65,North,5,4.0,5.0,72,0.00,,,0.00,0,Wunderground v.1.15,2013-01-26 01:36:00,
2013-01-26 02:41:00,41.7,33.3,29.65,NE,39,5.0,5.0,72,0.00,,,0.00,0,Wunderground v.1.15,2013-01-26 01:41:00,
2013-01-26 02:46:00,41.6,32.9,29.65,NNE,15,5.0,5.0,71,0.00,,,0.00,0,Wunderground v.1.15,2013-01-26 01:46:00,
2013-01-26 02:56:00,41.5,32.8,29.65,NE,40,5.0,6.0,71,0.00,,,0.00,0,Wunderground v.1.15,2013-01-26 01:56:00,
2013-01-26 03:01:00,41.4,33.0,29.65,NE,36,4.0,4.0,72,0.00,,,0.00,0,Wunderground v.1.15,2013-01-26 02:01:00,
2013-01-26 03:11:00,41.1,33.1,29.65,NNE,15,3.0,4.0,73,0.00,,,0.00,0,Wunderground v.1.15,2013-01-26 02:11:00,
2013-01-26 03:16:00,41.0,33.0,29.65,NNE,30,3.0,5.0,73,0.00,,,0.00,0,Wunderground v.1.15,2013-01-26 02:16:00,
2013-01-26 03:26:00,40.8,32.8,29.65,ENE,57,4.0,8.0,73,0.00,,,0.00,0,Wunderground v.1.15,2013-01-26 02:26:00,
2013-01-26 03:31:00,40.8,32.8,29.64,NE,34,5.0,6.0,73,0.00,,,0.00,0,Wunderground v.1.15,2013-01-26 02:31:00,
2013-01-26 03:41:00,40.7,32.7,29.65,NE,45,5.0,5.0,73,0.00,,,0.00,0,Wunderground v.1.15,2013-01-26 02:41:00,
2013-01-26 03:51:00,40.6,32.6,29.64,NE,41,4.0,4.0,73,0.00,,,0.00,0,Wunderground v.1.15,2013-01-26 02:51:00,
2013-01-26 03:56:00,40.5,32.5,29.64,ENE,78,4.0,4.0,73,0.00,,,0.00,0,Wunderground v.1.15,2013-01-26 02:56:00,
2013-01-26 04:06:00,40.3,32.3,29.64,NNE,22,3.0,6.0,73,0.00,,,0.00,0,Wunderground v.1.15,2013-01-26 03:06:00,
2013-01-26 04:11:00,40.2,32.2,29.64,NE,44,3.0,3.0,73,0.00,,,0.00,0,Wunderground v.1.15,2013-01-26 03:11:00,
2013-01-26 04:21:00,40.2,32.2,29.64,North,5,5.0,6.0,73,0.00,,,0.00,0,Wunderground v.1.15,2013-01-26 03:21:00,
2013-01-26 04:26:00,40.1,32.1,29.64,NE,49,4.0,6.0,73,0.00,,,0.00,0,Wunderground v.1.15,2013-01-26 03:26:00,
2013-01-26 04:31:00,40.1,32.1,29.64,NE,40,4.0,4.0,73,0.00,,,0.00,0,Wunderground v.1.15,2013-01-26 03:31:00,
2013-01-26 04:41:00,39.9,31.9,29.64,North,5,4.0,4.0,73,0.00,,,0.00,0,Wunderground v.1.15,2013-01-26 03:41:00,
2013-01-26 04:46:00,39.8,31.8,29.64,NNE,28,4.0,6.0,73,0.00,,,0.00,0,Wunderground v.1.15,2013-01-26 03:46:00,
2013-01-26 04:56:00,39.7,31.8,29.64,North,360,5.0,10.0,73,0.00,,,0.00,0,Wunderground v.1.15,2013-01-26 03:56:00,
2013-01-26 05:06:00,39.6,31.7,29.64,NNE,24,4.0,5.0,73,0.00,,,0.00,0,Wunderground v.1.15,2013-01-26 04:06:00,
2013-01-26 05:16:00,39.4,31.8,29.65,NE,46,4.0,4.0,74,0.00,,,0.00,0,Wunderground v.1.15,2013-01-26 04:16:00,
2013-01-26 05:21:00,39.4,31.8,29.65,North,5,4.0,4.0,74,0.00,,,0.00,0,Wunderground v.1.15,2013-01-26 04:21:00,
2013-01-26 05:31:00,39.3,31.7,29.65,NNE,32,3.0,8.0,74,0.00,,,0.00,0,Wunderground v.1.15,2013-01-26 04:31:00,
2013-01-26 05:36:00,39.3,31.7,29.65,North,5,4.0,8.0,74,0.00,,,0.00,0,Wunderground v.1.15,2013-01-26 04:36:00,
2013-01-26 05:46:00,39.0,31.4,29.65,NNW,342,2.0,4.0,74,0.00,,,0.00,0,Wunderground v.1.15,2013-01-26 04:46:00,
2013-01-26 05:51:00,39.0,31.7,29.66,ENE,57,2.0,3.0,75,0.00,,,0.00,0,Wunderground v.1.15,2013-01-26 04:51:00,
2013-01-26 06:01:00,39.0,31.7,29.66,North,5,3.0,7.0,75,0.00,,,0.00,0,Wunderground v.1.15,2013-01-26 05:01:00,
2013-01-26 06:11:00,38.8,31.6,29.66,NE,44,3.0,3.0,75,0.00,,,0.00,0,Wunderground v.1.15,2013-01-26 05:11:00,
2013-01-26 06:16:00,38.8,31.6,29.66,NNE,26,3.0,3.0,75,0.00,,,0.00,0,Wunderground v.1.15,2013-01-26 05:16:00,
2013-01-26 06:21:00,38.9,31.6,29.66,ENE,62,3.0,3.0,75,0.00,,,0.00,0,Wunderground v.1.15,2013-01-26 05:21:00,
2013-01-26 06:26:00,39.0,31.7,29.66,NE,56,3.0,6.0,75,0.00,,,0.00,0,Wunderground v.1.15,2013-01-26 05:26:00,
2013-01-26 06:31:00,39.0,31.7,29.66,ENE,67,3.0,9.0,75,0.00,,,0.00,0,Wunderground v.1.15,2013-01-26 05:31:00,
2013-01-26 06:41:00,38.8,31.2,29.66,North,355,4.0,4.0,74,0.00,,,0.00,0,Wunderground v.1.15,2013-01-26 05:41:00,
2013-01-26 06:46:00,38.7,31.5,29.66,NE,50,3.0,4.0,75,0.00,,,0.00,0,Wunderground v.1.15,2013-01-26 05:46:00,
2013-01-26 06:56:00,38.5,31.3,29.67,North,355,3.0,3.0,75,0.00,,,0.00,0,Wunderground v.1.15,2013-01-26 05:56:00,
2013-01-26 07:01:00,38.4,31.2,29.67,NW,309,2.0,3.0,75,0.00,,,0.00,0,Wunderground v.1.15,2013-01-26 06:01:00,
2013-01-26 07:11:00,38.4,31.2,29.67,ENE,69,3.0,3.0,75,0.00,,,0.00,0,Wunderground v.1.15,2013-01-26 06:11:00,
2013-01-26 07:21:00,38.3,31.1,29.67,NNE,20,2.0,2.0,75,0.00,,,0.00,0,Wunderground v.1.15,2013-01-26 06:21:00,
2013-01-26 07:26:00,38.2,30.6,29.67,North,5,3.0,3.0,74,0.00,,,0.00,0,Wunderground v.1.15,2013-01-26 06:26:00,
2013-01-26 07:31:00,38.2,30.6,29.67,NNE,23,4.0,8.0,74,0.00,,,0.00,5,Wunderground v.1.15,2013-01-26 06:31:00,
2013-01-26 07:41:00,38.2,30.6,29.68,NNE,25,3.0,3.0,74,0.00,,,0.00,11,Wunderground v.1.15,2013-01-26 06:41:00,
2013-01-26 07:51:00,38.1,30.5,29.68,NE,41,3.0,3.0,74,0.00,,,0.00,16,Wunderground v.1.15,2013-01-26 06:51:00,
2013-01-26 07:56:00,38.1,30.9,29.68,NW,305,2.0,6.0,75,0.00,,,0.00,18,Wunderground v.1.15,2013-01-26 06:56:00,
2013-01-26 08:06:00,38.1,30.5,29.68,ENE,67,2.0,2.0,74,0.00,,,0.00,23,Wunderground v.1.15,2013-01-26 07:06:00,
2013-01-26 08:11:00,38.2,30.6,29.68,NE,49,1.0,1.0,74,0.00,,,0.00,25,Wunderground v.1.15,2013-01-26 07:11:00,
2013-01-26 08:21:00,38.3,30.4,29.69,North,5,3.0,3.0,73,0.00,,,0.00,28,Wunderground v.1.15,2013-01-26 07:21:00,
2013-01-26 08:31:00,38.5,30.6,29.69,NNW,347,5.0,9.0,73,0.00,,,0.00,32,Wunderground v.1.15,2013-01-26 07:31:00,
2013-01-26 08:36:00,38.7,30.4,29.69,NNE,28,5.0,9.0,72,0.00,,,0.00,46,Wunderground v.1.15,2013-01-26 07:36:00,
2013-01-26 08:46:00,39.0,30.4,29.69,North,9,5.0,7.0,71,0.00,,,0.00,141,Wunderground v.1.15,2013-01-26 07:46:00,
2013-01-26 08:56:00,39.4,30.4,29.70,North,5,5.0,5.0,70,0.00,,,0.00,165,Wunderground v.1.15,2013-01-26 07:56:00,
2013-01-26 09:01:00,39.6,30.6,29.70,NNE,25,3.0,7.0,70,0.00,,,0.00,178,Wunderground v.1.15,2013-01-26 08:01:00,
2013-01-26 09:11:00,39.9,30.5,29.70,ENE,57,4.0,4.0,69,0.00,,,0.00,204,Wunderground v.1.15,2013-01-26 08:11:00,
2013-01-26 09:21:00,40.2,30.5,29.70,NNE,28,4.0,15.0,68,0.00,,,0.00,227,Wunderground v.1.15,2013-01-26 08:21:00,
2013-01-26 09:26:00,40.4,30.3,29.71,NE,38,5.0,15.0,67,0.00,,,0.00,237,Wunderground v.1.15,2013-01-26 08:26:00,
2013-01-26 09:36:00,40.8,30.7,29.71,NNW,336,5.0,6.0,67,0.00,,,0.00,260,Wunderground v.1.15,2013-01-26 08:36:00,
2013-01-26 09:41:00,41.0,30.9,29.71,NNW,346,4.0,4.0,67,0.00,,,0.00,272,Wunderground v.1.15,2013-01-26 08:41:00,
2013-01-26 09:51:00,41.4,30.5,29.71,NNE,24,6.0,6.0,65,0.00,,,0.00,294,Wunderground v.1.15,2013-01-26 08:51:00,
2013-01-26 09:56:00,41.6,30.7,29.71,NE,53,5.0,10.0,65,0.00,,,0.00,306,Wunderground v.1.15,2013-01-26 08:56:00,
2013-01-26 10:06:00,42.1,30.4,29.72,North,5,7.0,8.0,63,0.00,,,0.00,323,Wunderground v.1.15,2013-01-26 09:06:00,
2013-01-26 10:11:00,42.3,30.6,29.72,North,10,7.0,7.0,63,0.00,,,0.00,332,Wunderground v.1.15,2013-01-26 09:11:00,
2013-01-26 10:21:00,42.7,30.6,29.72,NW,305,5.0,7.0,62,0.00,,,0.00,353,Wunderground v.1.15,2013-01-26 09:21:00,
2013-01-26 10:26:00,43.0,30.9,29.72,North,355,5.0,7.0,62,0.00,,,0.00,362,Wunderground v.1.15,2013-01-26 09:26:00,
2013-01-26 10:36:00,43.5,30.5,29.72,NNE,16,7.0,10.0,60,0.00,,,0.00,376,Wunderground v.1.15,2013-01-26 09:36:00,
2013-01-26 10:41:00,43.7,30.7,29.72,NNE,26,7.0,12.0,60,0.00,,,0.00,385,Wunderground v.1.15,2013-01-26 09:41:00,
2013-01-26 10:46:00,43.9,30.9,29.72,NNE,19,7.0,12.0,60,0.00,,,0.00,392,Wunderground v.1.15,2013-01-26 09:46:00,
2013-01-26 10:56:00,44.3,31.3,29.73,NNW,331,6.0,9.0,60,0.00,,,0.00,404,Wunderground v.1.15,2013-01-26 09:56:00,
2013-01-26 11:06:00,44.7,31.2,29.73,NE,44,7.0,13.0,59,0.00,,,0.00,417,Wunderground v.1.15,2013-01-26 10:06:00,
2013-01-26 11:11:00,45.1,31.6,29.72,NE,42,6.0,6.0,59,0.00,,,0.00,424,Wunderground v.1.15,2013-01-26 10:11:00,
2013-01-26 11:21:00,45.6,31.7,29.73,NNW,334,6.0,10.0,58,0.00,,,0.00,432,Wunderground v.1.15,2013-01-26 10:21:00,
2013-01-26 11:26:00,45.6,31.2,29.73,NNW,338,7.0,10.0,57,0.00,,,0.00,438,Wunderground v.1.15,2013-01-26 10:26:00,
2013-01-26 11:36:00,45.9,31.5,29.73,NNE,28,8.0,8.0,57,0.00,,,0.00,443,Wunderground v.1.15,2013-01-26 10:36:00,
2013-01-26 11:46:00,46.4,32.4,29.73,NNE,24,6.0,7.0,58,0.00,,,0.00,450,Wunderground v.1.15,2013-01-26 10:46:00,
2013-01-26 11:51:00,46.4,31.5,29.73,North,9,6.0,10.0,56,0.00,,,0.00,454,Wunderground v.1.15,2013-01-26 10:51:00,
2013-01-26 12:01:00,46.6,31.3,29.73,North,11,7.0,10.0,55,0.00,,,0.00,461,Wunderground v.1.15,2013-01-26 11:01:00,
2013-01-26 12:06:00,46.8,31.5,29.73,NNE,32,7.0,10.0,55,0.00,,,0.00,462,Wunderground v.1.15,2013-01-26 11:06:00,
2013-01-26 12:16:00,47.2,31.4,29.73,NNW,344,5.0,9.0,54,0.00,,,0.00,464,Wunderground v.1.15,2013-01-26 11:16:00,
2013-01-26 12:26:00,47.6,32.2,29.73,North,5,6.0,9.0,55,0.00,,,0.00,466,Wunderground v.1.15,2013-01-26 11:26:00,
2013-01-26 12:31:00,47.9,32.0,29.73,NE,44,4.0,7.0,54,0.00,,,0.00,466,Wunderground v.1.15,2013-01-26 11:31:00,
2013-01-26 12:41:00,48.1,32.2,29.73,NNW,331,5.0,5.0,54,0.00,,,0.00,461,Wunderground v.1.15,2013-01-26 11:41:00,
2013-01-26 12:46:00,48.7,32.8,29.72,NW,323,4.0,7.0,54,0.00,,,0.00,459,Wunderground v.1.15,2013-01-26 11:46:00,
2013-01-26 12:51:00,48.2,31.4,29.72,NNW,332,6.0,11.0,52,0.00,,,0.00,457,Wunderground v.1.15,2013-01-26 11:51:00,
2013-01-26 13:01:00,48.4,32.0,29.72,North,5,7.0,7.0,53,0.00,,,0.00,452,Wunderground v.1.15,2013-01-26 12:01:00,
2013-01-26 13:06:00,48.5,31.7,29.72,North,5,7.0,8.0,52,0.00,,,0.00,450,Wunderground v.1.15,2013-01-26 12:06:00,
2013-01-26 13:16:00,48.6,31.8,29.72,NNW,347,6.0,8.0,52,0.00,,,0.00,446,Wunderground v.1.15,2013-01-26 12:16:00,
2013-01-26 13:21:00,48.8,31.9,29.72,NW,322,5.0,5.0,52,0.00,,,0.00,441,Wunderground v.1.15,2013-01-26 12:21:00,
2013-01-26 13:31:00,48.9,32.5,29.71,NNW,343,6.0,9.0,53,0.00,,,0.00,432,Wunderground v.1.15,2013-01-26 12:31:00,
2013-01-26 13:41:00,49.3,32.4,29.71,NNE,24,6.0,6.0,52,0.00,,,0.00,420,Wunderground v.1.15,2013-01-26 12:41:00,
2013-01-26 13:46:00,49.5,33.1,29.71,NNW,341,5.0,8.0,53,0.00,,,0.00,415,Wunderground v.1.15,2013-01-26 12:46:00,
2013-01-26 13:56:00,49.0,32.1,29.71,ENE,78,8.0,10.0,52,0.00,,,0.00,403,Wunderground v.1.15,2013-01-26 12:56:00,
2013-01-26 14:01:00,49.5,32.6,29.71,North,360,7.0,7.0,52,0.00,,,0.00,396,Wunderground v.1.15,2013-01-26 13:01:00,
2013-01-26 14:11:00,49.6,32.2,29.71,NNW,338,5.0,9.0,51,0.00,,,0.00,383,Wunderground v.1.15,2013-01-26 13:11:00,
2013-01-26 14:21:00,49.9,33.0,29.71,ENE,73,5.0,5.0,52,0.00,,,0.00,367,Wunderground v.1.15,2013-01-26 13:21:00,
2013-01-26 14:26:00,49.8,31.9,29.71,NNE,20,4.0,5.0,50,0.00,,,0.00,359,Wunderground v.1.15,2013-01-26 13:26:00,
2013-01-26 14:36:00,50.0,32.1,29.70,NNW,338,5.0,5.0,50,0.00,,,0.00,338,Wunderground v.1.15,2013-01-26 13:36:00,
2013-01-26 14:41:00,50.2,32.8,29.70,NNE,24,4.0,4.0,51,0.00,,,0.00,332,Wunderground v.1.15,2013-01-26 13:41:00,
2013-01-26 14:51:00,50.4,32.9,29.70,WNW,298,4.0,4.0,51,0.00,,,0.00,309,Wunderground v.1.15,2013-01-26 13:51:00,
2013-01-26 15:01:00,50.4,32.4,29.71,NNW,338,5.0,6.0,50,0.00,,,0.00,288,Wunderground v.1.15,2013-01-26 14:01:00,
2013-01-26 15:11:00,50.4,32.4,29.71,NE,49,5.0,5.0,50,0.00,,,0.00,271,Wunderground v.1.15,2013-01-26 14:11:00,
2013-01-26 15:16:00,50.5,32.5,29.70,NNW,333,5.0,5.0,50,0.00,,,0.00,258,Wunderground v.1.15,2013-01-26 14:16:00,
2013-01-26 15:26:00,50.3,32.4,29.71,NNE,24,5.0,5.0,50,0.00,,,0.00,237,Wunderground v.1.15,2013-01-26 14:26:00,
2013-01-26 15:31:00,50.3,32.4,29.71,NW,325,5.0,6.0,50,0.00,,,0.00,227,Wunderground v.1.15,2013-01-26 14:31:00,
2013-01-26 15:41:00,50.2,32.8,29.71,NNW,331,6.0,8.0,51,0.00,,,0.00,200,Wunderground v.1.15,2013-01-26 14:41:00,
2013-01-26 15:46:00,50.2,32.3,29.71,NNW,338,7.0,8.0,50,0.00,,,0.00,183,Wunderground v.1.15,2013-01-26 14:46:00,
2013-01-26 15:56:00,50.1,32.2,29.72,NNW,343,6.0,7.0,50,0.00,,,0.00,156,Wunderground v.1.15,2013-01-26 14:56:00,
2013-01-26 16:06:00,49.9,32.0,29.72,NW,319,6.0,6.0,50,0.00,,,0.00,128,Wunderground v.1.15,2013-01-26 15:06:00,
2013-01-26 16:11:00,49.8,31.9,29.72,North,351,7.0,7.0,50,0.00,,,0.00,114,Wunderground v.1.15,2013-01-26 15:11:00,
2013-01-26 16:21:00,49.6,32.2,29.73,NNW,328,7.0,7.0,51,0.00,,,0.00,93,Wunderground v.1.15,2013-01-26 15:21:00,
2013-01-26 16:31:00,49.5,32.1,29.73,NNW,343,5.0,6.0,51,0.00,,,0.00,69,Wunderground v.1.15,2013-01-26 15:31:00,
2013-01-26 16:41:00,49.3,31.9,29.73,NW,321,6.0,7.0,51,0.00,,,0.00,56,Wunderground v.1.15,2013-01-26 15:41:00,
2013-01-26 16:46:00,49.2,31.8,29.74,NNW,341,7.0,7.0,51,0.00,,,0.00,42,Wunderground v.1.15,2013-01-26 15:46:00,
2013-01-26 16:56:00,48.7,31.8,29.74,NNW,341,6.0,8.0,52,0.00,,,0.00,25,Wunderground v.1.15,2013-01-26 15:56:00,
2013-01-26 17:06:00,48.3,32.4,29.74,NNW,328,4.0,6.0,54,0.00,,,0.00,14,Wunderground v.1.15,2013-01-26 16:06:00,
2013-01-26 17:11:00,48.2,32.3,29.74,NNW,327,4.0,4.0,54,0.00,,,0.00,11,Wunderground v.1.15,2013-01-26 16:11:00,
2013-01-26 17:21:00,47.8,31.9,29.74,NE,50,4.0,4.0,54,0.00,,,0.00,0,Wunderground v.1.15,2013-01-26 16:21:00,
2013-01-26 17:26:00,47.5,32.1,29.74,North,360,4.0,4.0,55,0.00,,,0.00,0,Wunderground v.1.15,2013-01-26 16:26:00,
2013-01-26 17:36:00,47.0,31.2,29.75,North,355,5.0,5.0,54,0.00,,,0.00,0,Wunderground v.1.15,2013-01-26 16:36:00,
2013-01-26 17:41:00,46.8,31.5,29.75,NNW,344,3.0,6.0,55,0.00,,,0.00,0,Wunderground v.1.15,2013-01-26 16:41:00,
2013-01-26 17:46:00,46.6,30.8,29.76,NNE,25,3.0,6.0,54,0.00,,,0.00,0,Wunderground v.1.15,2013-01-26 16:46:00,
2013-01-26 17:56:00,46.2,30.9,29.76,North,355,3.0,4.0,55,0.00,,,0.00,0,Wunderground v.1.15,2013-01-26 16:56:00,
2013-01-26 18:01:00,46.1,31.3,29.76,NNE,24,3.0,5.0,56,0.00,,,0.00,0,Wunderground v.1.15,2013-01-26 17:01:00,
2013-01-26 18:11:00,45.9,31.5,29.77,North,355,4.0,4.0,57,0.00,,,0.00,0,Wunderground v.1.15,2013-01-26 17:11:00,
2013-01-26 18:16:00,45.7,30.9,29.77,NNE,13,3.0,6.0,56,0.00,,,0.00,0,Wunderground v.1.15,2013-01-26 17:16:00,
2013-01-26 18:21:00,45.6,30.8,29.77,NNE,26,4.0,4.0,56,0.00,,,0.00,0,Wunderground v.1.15,2013-01-26 17:21:00,
2013-01-26 18:31:00,45.5,30.7,29.78,NNE,20,4.0,5.0,56,0.00,,,0.00,0,Wunderground v.1.15,2013-01-26 17:31:00,
2013-01-26 18:36:00,45.4,30.6,29.78,ENE,63,4.0,5.0,56,0.00,,,0.00,0,Wunderground v.1.15,2013-01-26 17:36:00,
2013-01-26 18:41:00,45.4,31.0,29.78,NE,36,3.0,5.0,57,0.00,,,0.00,0,Wunderground v.1.15,2013-01-26 17:41:00,
2013-01-26 18:51:00,45.2,30.4,29.79,NNE,33,5.0,5.0,56,0.00,,,0.00,0,Wunderground v.1.15,2013-01-26 17:51:00,
2013-01-26 19:01:00,45.0,30.2,29.79,NNE,14,4.0,7.0,56,0.00,,,0.00,0,Wunderground v.1.15,2013-01-26 18:01:00,
2013-01-26 19:06:00,45.0,30.7,29.80,NE,41,5.0,9.0,57,0.00,,,0.00,0,Wunderground v.1.15,2013-01-26 18:06:00,
2013-01-26 19:16:00,44.6,30.3,29.81,ENE,73,4.0,5.0,57,0.00,,,0.00,0,Wunderground v.1.15,2013-01-26 18:16:00,
2013-01-26 19:21:00,44.4,30.5,29.81,North,360,3.0,3.0,58,0.00,,,0.00,0,Wunderground v.1.15,2013-01-26 18:21:00,
2013-01-26 19:31:00,44.2,30.3,29.81,NNE,32,3.0,5.0,58,0.00,,,0.00,0,Wunderground v.1.15,2013-01-26 18:31:00,
2013-01-26 19:36:00,44.2,30.8,29.81,North,9,3.0,5.0,59,0.00,,,0.00,0,Wunderground v.1.15,2013-01-26 18:36:00,
2013-01-26 19:46:00,44.0,31.0,29.82,North,9,3.0,4.0,60,0.00,,,0.00,0,Wunderground v.1.15,2013-01-26 18:46:00,
2013-01-26 19:51:00,43.7,30.3,29.82,NE,42,3.0,4.0,59,0.00,,,0.00,0,Wunderground v.1.15,2013-01-26 18:51:00,
2013-01-26 19:56:00,43.5,30.5,29.82,NE,36,3.0,4.0,60,0.00,,,0.00,0,Wunderground v.1.15,2013-01-26 18:56:00,
2013-01-26 20:06:00,43.4,30.8,29.82,NNE,30,3.0,3.0,61,0.00,,,0.00,0,Wunderground v.1.15,2013-01-26 19:06:00,
2013-01-26 20:16:00,43.3,30.3,29.82,NNW,346,4.0,6.0,60,0.00,,,0.00,0,Wunderground v.1.15,2013-01-26 19:16:00,
2013-01-26 20:21:00,43.0,30.5,29.82,North,5,5.0,5.0,61,0.00,,,0.00,0,Wunderground v.1.15,2013-01-26 19:21:00,
2013-01-26 20:31:00,42.7,30.6,29.82,North,360,3.0,3.0,62,0.00,,,0.00,0,Wunderground v.1.15,2013-01-26 19:31:00,
2013-01-26 20:41:00,42.6,30.5,29.83,NE,42,3.0,4.0,62,0.00,,,0.00,0,Wunderground v.1.15,2013-01-26 19:41:00,
2013-01-26 20:46:00,42.6,30.5,29.83,NE,42,3.0,4.0,62,0.00,,,0.00,0,Wunderground v.1.15,2013-01-26 19:46:00,
2013-01-26 20:56:00,42.5,30.4,29.83,North,360,4.0,6.0,62,0.00,,,0.00,0,Wunderground v.1.15,2013-01-26 19:56:00,
2013-01-26 21:01:00,42.2,30.5,29.83,NNE,22,4.0,4.0,63,0.00,,,0.00,0,Wunderground v.1.15,2013-01-26 20:01:00,
2013-01-26 21:06:00,42.1,30.4,29.83,NE,43,3.0,4.0,63,0.00,,,0.00,0,Wunderground v.1.15,2013-01-26 20:06:00,
2013-01-26 21:11:00,42.1,30.8,29.83,NE,45,2.0,2.0,64,0.00,,,0.00,0,Wunderground v.1.15,2013-01-26 20:11:00,
2013-01-26 21:21:00,41.9,30.6,29.83,NE,40,2.0,3.0,64,0.00,,,0.00,0,Wunderground v.1.15,2013-01-26 20:21:00,
2013-01-26 21:31:00,41.7,30.8,29.83,North,10,2.0,3.0,65,0.00,,,0.00,0,Wunderground v.1.15,2013-01-26 20:31:00,
2013-01-26 21:36:00,41.5,30.6,29.84,NNE,15,2.0,3.0,65,0.00,,,0.00,0,Wunderground v.1.15,2013-01-26 20:36:00,
2013-01-26 21:46:00,41.1,30.2,29.84,NNE,15,2.0,3.0,65,0.00,,,0.00,0,Wunderground v.1.15,2013-01-26 20:46:00,
2013-01-26 21:51:00,41.1,30.6,29.84,NE,34,2.0,3.0,66,0.00,,,0.00,0,Wunderground v.1.15,2013-01-26 20:51:00,
2013-01-26 22:01:00,41.1,30.6,29.84,NE,43,3.0,3.0,66,0.00,,,0.00,0,Wunderground v.1.15,2013-01-26 21:01:00,
2013-01-26 22:11:00,40.9,30.8,29.84,NE,52,3.0,3.0,67,0.00,,,0.00,0,Wunderground v.1.15,2013-01-26 21:11:00,
2013-01-26 22:21:00,40.7,31.0,29.84,NE,52,3.0,3.0,68,0.00,,,0.00,0,Wunderground v.1.15,2013-01-26 21:21:00,
2013-01-26 22:26:00,40.6,30.9,29.84,NE,35,2.0,3.0,68,0.00,,,0.00,0,Wunderground v.1.15,2013-01-26 21:26:00,
2013-01-26 22:36:00,40.4,31.0,29.84,NNE,24,1.0,4.0,69,0.00,,,0.00,0,Wunderground v.1.15,2013-01-26 21:36:00,
2013-01-26 22:41:00,40.4,31.0,29.84,NNE,27,1.0,1.0,69,0.00,,,0.00,0,Wunderground v.1.15,2013-01-26 21:41:00,
2013-01-26 22:51:00,40.2,30.8,29.85,NNE,25,2.0,3.0,69,0.00,,,0.00,0,Wunderground v.1.15,2013-01-26 21:51:00,
2013-01-26 22:56:00,40.1,30.7,29.85,NE,51,3.0,3.0,69,0.00,,,0.00,0,Wunderground v.1.15,2013-01-26 21:56:00,
2013-01-26 23:06:00,39.8,30.8,29.85,NE,41,2.0,4.0,70,0.00,,,0.00,0,Wunderground v.1.15,2013-01-26 22:06:00,
2013-01-26 23:11:00,39.6,30.6,29.86,NNW,331,2.0,4.0,70,0.00,,,0.00,0,Wunderground v.1.15,2013-01-26 22:11:00,
2013-01-26 23:21:00,39.1,29.8,29.86,ENE,72,3.0,3.0,69,0.00,,,0.00,0,Wunderground v.1.15,2013-01-26 22:21:00,
2013-01-26 23:31:00,39.2,29.5,29.86,NW,323,4.0,4.0,68,0.00,,,0.00,0,Wunderground v.1.15,2013-01-26 22:31:00,
2013-01-26 23:41:00,39.3,29.6,29.86,NE,36,3.0,3.0,68,0.00,,,0.00,0,Wunderground v.1.15,2013-01-26 22:41:00,
2013-01-26 23:46:00,39.3,30.0,29.86,NNE,28,3.0,5.0,69,0.00,,,0.00,0,Wunderground v.1.15,2013-01-26 22:46:00,
2013-01-26 23:51:00,39.3,30.0,29.86,NNE,23,4.0,4.0,69,0.00,,,0.00,0,Wunderground v.1.15,2013-01-26 22:51:00,